Location: McFarlands Corners
(41.4117°N, 81.3382°W)
Time: 16:45:51
(UTC+00:00)

Transit 2A - Pass Details

Date: 18 February 2026
Orbit: 590 x 954 km, 66.7° (Epoch: 7 March)

Event Time Altitude Azimuth Distance (km) Brightness Sun altitude
Rises 01:48:51 0° 335° (NNW) 3,584 9.9 -31.8°
Reaches altitude 10° 01:51:47 10° 346° (NNW) 2,599 9.0 -32.4°
Enters shadow 01:54:03 20° 1° (N) 1,941 8.1 -32.8°
